Temp
82 85 85 84 89 89 90 89 86 83 84 84 85 84 82 82 82 81 78 76 75 72
83 82 85 85 84 88 88 91 87 85 83 84 84 84 82 83 81 81 77 78 75 74
78 79 82 84 82 84 84 86 84 83 83 82 83 83 80 81 81 79 79 80 76 75
80 81 81 81 81 82 81 82 82 82 82 82 81 81 79 79 80 79 78 79 77 76
79 80 79 80 81 81 80 81 82 83 82 82 82 80 79 80 82 80 79 79 80 80
77 77 77 79 79 80 80 80 82 82 82 82 82 81 81 82 82 81 81 81 80 80
74 75 77 79 78 79 81 80 81 81 83 83 83 82 82 82 81 81 81 81 80 81
74 73 75 78 79 80 80 81 82 81 82 82 83 84 82 81 80 79 79 79 81 81
73 77 76 76 77 78 79 80 81 80 81 80 84 57 62 74 80 79 78 77 79 80
68 70 75 77 77 76 75 77 77 79 80 79 80 54 55 57 78 77 77 76 76 78
63 67 70 74 74 74 74 74 75 77 78 78 78 52 50 53 77 76 76 76 76 75
55 59 66 70 71 72 72 73 74 76 76 75 75 50 48 57 75 75 75 76 77 77
68 59 59 64 66 69 71 72 76 75 74 69 74 49 47 57 77 75 76 75 75 58
68 68 69 68 67 67 67 71 69 72 73 74 72 68 47 46 73 76 76 77 77 80
MSLP
1000.23 1000.51 1001.03 1001.34 1001.17 1001.44 1001.71 1002.56 1003.60 1004.85 1005.24 1005.84 1006.55 1006.91 1007.61 1008.12 1008.62 1008.90 1009.39 1009.66 1009.66 1010.20
999.60 999.82 999.68 1000.14 1000.96 1000.94 1001.43 1001.60 1002.82 1003.77 1004.59 1005.35 1005.98 1006.36 1006.85 1007.17 1007.59 1008.04 1008.78 1008.80 1009.48 1009.93
999.00 999.28 999.26 999.81 1000.38 1000.85 1001.58 1001.88 1002.68 1003.51 1004.23 1004.94 1005.46 1005.76 1006.36 1006.57 1007.15 1007.70 1008.00 1008.23 1008.80 1009.50
998.70 998.97 999.46 999.82 1000.34 1000.75 1001.49 1001.93 1002.63 1003.30 1004.03 1004.61 1005.03 1005.38 1005.89 1006.21 1006.48 1006.89 1007.28 1007.80 1008.31 1008.93
998.86 998.75 999.06 999.31 999.79 1000.46 1001.17 1001.90 1002.40 1003.09 1003.75 1004.24 1004.70 1005.29 1005.64 1005.81 1005.86 1006.40 1006.80 1007.22 1007.66 1007.98
998.84 998.56 998.90 999.20 999.62 1000.23 1000.82 1001.55 1002.09 1002.72 1003.29 1003.74 1004.31 1005.05 1005.38 1005.54 1005.75 1006.12 1006.52 1006.89 1007.30 1007.53
999.33 998.92 998.90 999.30 999.48 1000.15 1000.54 1001.17 1001.74 1002.27 1002.76 1003.34 1004.02 1004.68 1005.10 1005.37 1005.68 1006.09 1006.50 1006.93 1007.22 1007.33
999.04 999.48 999.53 999.28 999.57 999.97 1000.34 1000.91 1001.54 1001.89 1002.33 1003.01 1003.58 1004.06 1004.60 1005.04 1005.60 1006.03 1006.40 1006.84 1007.03 1007.08
999.38 998.83 999.22 999.53 999.83 999.73 1000.09 1000.72 1001.16 1001.39 1001.86 1002.51 1002.99 1003.78 1004.59 1004.91 1005.28 1005.81 1006.19 1006.46 1006.63 1006.81
1000.25 999.78 999.18 999.35 999.60 999.58 999.99 1000.52 1000.72 1001.11 1001.61 1002.15 1002.77 1003.81 1004.79 1005.29 1005.36 1005.68 1006.01 1006.34 1006.54 1006.56
1000.86 1000.15 999.78 999.34 999.26 999.25 999.73 1000.22 1000.52 1000.84 1001.34 1002.00 1002.63 1004.05 1004.97 1005.40 1005.30 1005.63 1005.82 1006.02 1006.12 1006.16
999.96 1000.76 1000.53 999.84 999.07 999.23 999.52 999.85 1000.23 1000.64 1001.08 1001.78 1002.70 1003.91 1004.85 1005.27 1004.92 1005.05 1005.39 1005.61 1005.64 1005.70
998.36 999.66 1000.01 999.93 999.04 999.05 999.43 999.46 999.85 1000.30 1000.94 1001.48 1002.06 1003.40 1004.32 1004.78 1004.31 1004.42 1004.79 1005.01 1005.22 1005.35
997.28 997.43 997.75 998.06 998.42 998.64 999.18 999.36 999.94 999.97 1000.50 1001.14 1001.71 1002.51 1003.46 1004.21 1004.10 1003.99 1004.08 1004.08 1004.06 1004.03
Wind_Speed
21 16 16 16 13 12 12 13 13 16 15 15 14 13 13 12 13 13 12 15 11 8
18 19 16 15 14 10 10 10 12 13 13 14 14 14 14 11 13 12 13 10 8 7
14 15 15 14 15 13 11 10 12 13 13 13 13 13 11 10 11 12 10 8 9 8
15 16 15 15 15 13 12 11 11 10 10 11 11 11 12 12 11 14 12 11 11 11
17 16 15 14 14 14 13 12 11 11 10 11 11 10 11 11 10 11 11 11 9 10
13 14 14 14 14 14 14 13 13 12 12 12 11 11 11 11 11 10 9 8 8 7
8 10 12 14 14 15 15 15 14 13 13 13 12 12 12 10 10 9 8 6 5 5
9 9 9 12 14 15 15 14 15 15 14 13 12 11 12 11 10 9 7 6 6 7
10 9 13 12 14 14 15 15 15 15 15 15 11 14 9 10 9 8 6 5 4 6
7 10 11 15 16 14 14 13 14 15 15 15 12 13 11 5 9 8 6 5 5 7
13 11 11 12 15 13 14 14 14 15 15 14 12 14 12 9 7 6 6 6 7 8
12 13 14 15 12 13 13 15 15 15 17 16 14 16 14 11 8 8 7 7 8 9
17 20 17 15 9 10 12 14 14 16 16 15 15 15 14 10 7 8 7 7 9 12
21 21 20 17 13 11 12 12 11 16 14 14 13 13 15 14 9 8 8 8 8 9
Wind_Direction
213 212 212 207 207 203 195 191 181 197 198 206 207 207 202 204 214 212 221 228 221 204
214 217 204 205 208 198 211 191 179 188 198 204 213 210 205 216 214 215 218 212 211 213
207 208 211 196 193 191 182 195 176 188 193 200 205 202 193 206 208 202 208 225 204 216
204 196 187 185 183 171 165 169 172 177 182 192 201 203 200 214 214 211 213 214 218 219
200 185 179 177 172 165 164 169 172 175 180 182 185 180 187 192 184 194 194 196 202 207
198 180 179 174 170 171 168 172 175 178 183 183 179 178 182 184 174 178 181 183 195 212
219 194 182 180 171 176 173 170 173 177 182 183 178 179 180 180 175 175 177 179 207 222
200 209 217 191 181 181 177 178 183 179 181 183 186 185 186 180 185 184 189 188 220 221
320 232 204 208 200 189 186 189 192 188 190 187 199 126 127 183 177 179 187 216 251 282
294 297 248 209 206 197 201 198 194 190 194 187 193 132 137 154 172 180 191 217 255 275
281 267 275 229 221 198 195 201 197 189 189 184 174 146 152 167 189 205 221 240 256 268
209 261 253 243 213 210 200 196 198 195 185 184 174 159 162 181 199 209 228 254 268 276
208 199 226 236 208 198 211 203 200 195 194 187 186 163 166 185 228 221 231 241 254 230
227 229 216 207 202 191 193 210 208 197 191 197 202 176 175 185 226 248 242 250 262 277